Location: Fernhill
(41.0167°S, 175.6333°E)
Time: 00:06:38
(UTC+00:00)

Cosmos 1606 Rocket - Pass Details

Date: 08 November 2025
Orbit: 597 x 623 km, 82.5° (Epoch: 04 December)

Event Time Altitude Azimuth Distance (km) Brightness Sun altitude
Rises 09:29:54 0° 192° (SSW) 2,911 8.0 -22.5°
Reaches altitude 10° 09:32:10 10° 195° (SSW) 1,994 7.1 -22.7°
Maximum altitude 09:36:32 62° 274° (W) 691 3.8 -23.3°
Enters shadow 09:37:13 54° 319° (NW) 750 3.8 -23.3°
